THY201 LTFM-EDDH

Flight info

Callsign THY201
Flight time 2h 47m
Altitude 40000
Route IBLAX1E/36 IBLAX P727 BGS L622 KOMAN DCT KARIL DCT KEKED DCT KELEL DCT VAGON DCT SUBIX DCT VIBIS L619 BUMIL/N0460F240 M748 RARUP RARUP3S
Aircraft A359/H-SDE2E3GHIJ3J4J5LM1ORWXY/LB1D1

Departure

Time 2026-04-25 16:12
Airport İstanbul Airport (LTFM)

Arrival

Time 2026-04-25 19:00
Airport Hamburg Helmut Schmidt Airport (EDDH)
Time Latitude Longitude Altitude Speed Heading
2026-04-25 15:43 41.26031 28.74923 185 ft 0 kts 251°
2026-04-25 16:02 41.26033 28.74929 212 ft 2 kts 249°
2026-04-25 16:02 41.26039 28.74949 203 ft 2 kts 243°
2026-04-25 16:02 41.26048 28.74967 202 ft 2 kts 230°
2026-04-25 16:02 41.26057 28.74985 198 ft 2 kts 256°
2026-04-25 16:03 41.26058 28.75006 202 ft 2 kts 282°
2026-04-25 16:03 41.26055 28.75028 202 ft 2 kts 306°
2026-04-25 16:03 41.26042 28.75042 202 ft 2 kts 330°
2026-04-25 16:03 41.26028 28.75051 202 ft 2 kts 337°
2026-04-25 16:04 41.26018 28.75056 202 ft 0 kts 339°
2026-04-25 16:07 41.26021 28.75055 202 ft 3 kts 340°
2026-04-25 16:08 41.26061 28.75035 202 ft 8 kts 339°
2026-04-25 16:08 41.26110 28.75012 200 ft 8 kts 340°
2026-04-25 16:08 41.26171 28.74987 199 ft 8 kts 347°
2026-04-25 16:08 41.26228 28.75006 189 ft 9 kts 47°
2026-04-25 16:09 41.26231 28.75060 187 ft 7 kts 91°
2026-04-25 16:09 41.26229 28.75135 185 ft 9 kts 90°
2026-04-25 16:09 41.26230 28.75231 185 ft 11 kts 88°
2026-04-25 16:09 41.26232 28.75318 185 ft 2 kts 89°
2026-04-25 16:10 41.26233 28.75353 185 ft 5 kts 89°
2026-04-25 16:10 41.26233 28.75414 186 ft 8 kts 90°
2026-04-25 16:10 41.26233 28.75500 195 ft 10 kts 90°
2026-04-25 16:10 41.26235 28.75601 186 ft 10 kts 83°
2026-04-25 16:11 41.26275 28.75664 192 ft 9 kts 23°
2026-04-25 16:11 41.26319 28.75669 193 ft 0 kts 358°
2026-04-25 16:11 41.26495 28.75666 191 ft 64 kts 359°
2026-04-25 16:12 41.27195 28.75656 195 ft 133 kts 358°
2026-04-25 16:12 41.28281 28.75626 453 ft 168 kts
2026-04-25 16:12 41.29445 28.75597 1241 ft 166 kts
2026-04-25 16:12 41.29819 28.75634 1452 ft 168 kts
2026-04-25 16:13 41.31583 28.77234 1796 ft 210 kts 43°
2026-04-25 16:13 41.32830 28.78449 2145 ft 231 kts 31°
2026-04-25 16:13 41.34282 28.79548 2547 ft 246 kts 28°
2026-04-25 16:13 41.35787 28.80631 3315 ft 246 kts 26°
2026-04-25 16:14 41.37322 28.81721 3911 ft 254 kts 27°
2026-04-25 16:14 41.39002 28.82513 4527 ft 258 kts
2026-04-25 16:14 41.40780 28.82458 5160 ft 261 kts 351°
2026-04-25 16:14 41.42597 28.82155 5863 ft 263 kts 352°
2026-04-25 16:15 41.44427 28.81871 6564 ft 265 kts 353°
2026-04-25 16:15 41.46262 28.81613 7156 ft 270 kts 353°
2026-04-25 16:15 41.48149 28.81362 7709 ft 274 kts 353°
2026-04-25 16:15 41.50068 28.81116 7962 ft 278 kts 353°
2026-04-25 16:16 41.51997 28.80873 7999 ft 279 kts 353°
2026-04-25 16:16 41.53941 28.80631 7997 ft 280 kts 353°
2026-04-25 16:16 41.55884 28.80390 7987 ft 280 kts 353°
2026-04-25 16:16 41.57805 28.80129 8048 ft 280 kts 351°
2026-04-25 16:17 41.59689 28.79440 8448 ft 283 kts 334°
2026-04-25 16:17 41.61330 28.78004 9114 ft 283 kts 316°
2026-04-25 16:17 41.62538 28.75927 9767 ft 284 kts 296°
2026-04-25 16:17 41.63346 28.73489 10265 ft 292 kts 290°
2026-04-25 16:18 41.64094 28.70887 10543 ft 307 kts 290°
2026-04-25 16:18 41.64343 28.70014 10632 ft 312 kts 290°
2026-04-25 16:18 41.65691 28.65332 11057 ft 335 kts 290°
2026-04-25 16:18 41.66258 28.63380 11224 ft 344 kts 290°
2026-04-25 16:19 41.67300 28.60434 11523 ft 354 kts 301°
2026-04-25 16:19 41.69218 28.56852 12145 ft 359 kts 307°
2026-04-25 16:19 41.70258 28.55051 12477 ft 361 kts 308°
2026-04-25 16:20 41.74007 28.50563 13455 ft 367 kts 323°
2026-04-25 16:20 41.76124 28.48606 13925 ft 370 kts 326°
2026-04-25 16:20 41.80470 28.44815 14795 ft 374 kts 326°
2026-04-25 16:21 41.82657 28.42893 15236 ft 376 kts 326°
2026-04-25 16:21 41.84840 28.40944 15674 ft 379 kts 326°
2026-04-25 16:21 41.87035 28.38958 16105 ft 381 kts 325°
2026-04-25 16:21 41.89241 28.36943 16541 ft 384 kts 325°
2026-04-25 16:22 41.91426 28.34936 16950 ft 386 kts 325°
2026-04-25 16:22 41.93658 28.32882 17438 ft 388 kts 325°
2026-04-25 16:22 41.95883 28.30820 17910 ft 389 kts 324°
2026-04-25 16:22 41.97956 28.28464 18306 ft 392 kts 314°
2026-04-25 16:23 41.99739 28.25663 18676 ft 394 kts 308°
2026-04-25 16:23 42.01381 28.22704 19038 ft 396 kts 306°
2026-04-25 16:23 42.02942 28.19677 19421 ft 398 kts 304°
2026-04-25 16:23 42.04490 28.16567 19799 ft 400 kts 303°
2026-04-25 16:24 42.06029 28.13442 20169 ft 402 kts 303°
2026-04-25 16:24 42.07579 28.10299 20553 ft 404 kts 304°
2026-04-25 16:24 42.09144 28.07146 20913 ft 405 kts 304°
2026-04-25 16:24 42.10721 28.03984 21277 ft 407 kts 304°
2026-04-25 16:25 42.12291 28.00848 21643 ft 409 kts 304°
2026-04-25 16:25 42.13363 27.98709 21901 ft 410 kts 304°
2026-04-25 16:25 42.15491 27.94464 22364 ft 413 kts 304°
2026-04-25 16:25 42.17097 27.91257 22714 ft 414 kts 304°
2026-04-25 16:26 42.18723 27.88008 23048 ft 416 kts 304°
2026-04-25 16:26 42.20366 27.84769 23383 ft 418 kts 306°
2026-04-25 16:26 42.22225 27.81809 23687 ft 420 kts 315°
2026-04-25 16:26 42.24458 27.79249 23970 ft 421 kts 325°
2026-04-25 16:27 42.26936 27.77114 24277 ft 422 kts 329°
2026-04-25 16:27 42.29497 27.75132 24577 ft 424 kts 331°
2026-04-25 16:27 42.32099 27.73228 24901 ft 425 kts 332°
2026-04-25 16:27 42.34718 27.71352 25207 ft 427 kts 332°
2026-04-25 16:28 42.37325 27.69488 25526 ft 428 kts 332°
2026-04-25 16:28 42.39961 27.67591 25832 ft 430 kts 332°
2026-04-25 16:28 42.42597 27.65678 26163 ft 431 kts 332°
2026-04-25 16:28 42.45247 27.63741 26508 ft 433 kts 332°
2026-04-25 16:29 42.47895 27.61796 26859 ft 434 kts 332°
2026-04-25 16:29 42.50560 27.59834 27233 ft 435 kts 332°
2026-04-25 16:29 42.53227 27.57867 27617 ft 437 kts 332°
2026-04-25 16:29 42.55872 27.55914 27999 ft 439 kts 332°
2026-04-25 16:30 42.58525 27.53832 28382 ft 441 kts 327°
2026-04-25 16:30 42.61074 27.51478 28784 ft 443 kts 326°
2026-04-25 16:30 42.63608 27.49052 29152 ft 446 kts 325°
2026-04-25 16:30 42.66107 27.46614 29537 ft 448 kts 325°
2026-04-25 16:31 42.68640 27.44117 29965 ft 450 kts 325°
2026-04-25 16:31 42.71172 27.41613 30381 ft 451 kts 325°
2026-04-25 16:31 42.73726 27.39086 30717 ft 453 kts 325°
2026-04-25 16:31 42.76256 27.36585 31040 ft 456 kts 325°
2026-04-25 16:32 42.78830 27.34041 31387 ft 458 kts 325°
2026-04-25 16:32 42.81415 27.31487 31698 ft 460 kts 325°
2026-04-25 16:32 42.84018 27.28913 32006 ft 462 kts 325°
2026-04-25 16:32 42.86633 27.26325 32305 ft 464 kts 325°
2026-04-25 16:33 42.89246 27.23736 32648 ft 465 kts 325°
2026-04-25 16:33 42.91862 27.21141 33023 ft 465 kts 325°
2026-04-25 16:33 42.94480 27.18541 33448 ft 464 kts 325°
2026-04-25 16:33 42.97058 27.15979 33864 ft 463 kts 325°
2026-04-25 16:34 42.99660 27.13389 34222 ft 462 kts 325°
2026-04-25 16:34 43.02251 27.10807 34549 ft 462 kts 325°
2026-04-25 16:34 43.04849 27.08217 34880 ft 462 kts 325°
2026-04-25 16:34 43.07444 27.05626 35185 ft 462 kts 325°
2026-04-25 16:35 43.10045 27.03027 35584 ft 460 kts 325°
2026-04-25 16:35 43.12660 27.00492 35934 ft 459 kts 326°
2026-04-25 16:35 43.15320 26.98046 36250 ft 459 kts 327°
2026-04-25 16:35 43.17991 26.95646 36568 ft 459 kts 327°
2026-04-25 16:36 43.20664 26.93252 36885 ft 459 kts 327°
2026-04-25 16:36 43.25991 26.88475 37489 ft 459 kts 327°
2026-04-25 16:36 43.28657 26.86064 37815 ft 458 kts 327°
2026-04-25 16:37 43.31300 26.83661 38298 ft 454 kts 327°
2026-04-25 16:37 43.33927 26.81267 38650 ft 453 kts 327°
2026-04-25 16:37 43.36554 26.78866 38828 ft 454 kts 327°
2026-04-25 16:37 43.39183 26.76460 39011 ft 454 kts 326°
2026-04-25 16:38 43.41814 26.74050 39200 ft 455 kts 326°
2026-04-25 16:38 43.44452 26.71632 39390 ft 455 kts 326°
2026-04-25 16:38 43.47089 26.69211 39569 ft 456 kts 326°
2026-04-25 16:38 43.49691 26.66821 39741 ft 456 kts 326°
2026-04-25 16:39 43.52329 26.64396 39929 ft 456 kts 326°
2026-04-25 16:39 43.57609 26.59534 39969 ft 455 kts 326°
2026-04-25 16:40 43.62883 26.54668 39969 ft 456 kts 326°
2026-04-25 16:40 43.68153 26.49794 39953 ft 456 kts 326°
2026-04-25 16:41 43.73416 26.44917 39974 ft 455 kts 326°
2026-04-25 16:41 43.81302 26.37588 39975 ft 455 kts 326°
2026-04-25 16:42 43.86531 26.32717 39972 ft 455 kts 326°
2026-04-25 16:42 43.91777 26.27819 39972 ft 454 kts 326°
2026-04-25 16:43 43.97023 26.22909 39968 ft 454 kts 326°
2026-04-25 16:43 44.02278 26.18032 39970 ft 454 kts 326°
2026-04-25 16:44 44.07574 26.13215 39970 ft 454 kts 326°
2026-04-25 16:44 44.12836 26.08424 39963 ft 454 kts 326°
2026-04-25 16:45 44.18108 26.03596 39962 ft 452 kts 326°
2026-04-25 16:45 44.23372 25.98756 39964 ft 452 kts 326°
2026-04-25 16:46 44.28586 25.93951 39965 ft 452 kts 326°
2026-04-25 16:46 44.32090 25.90717 39973 ft 452 kts 326°
2026-04-25 16:47 44.39065 25.84264 39968 ft 450 kts 326°
2026-04-25 16:47 44.44292 25.79417 39967 ft 450 kts 326°
2026-04-25 16:48 44.49506 25.74571 39966 ft 449 kts 326°
2026-04-25 16:48 44.54690 25.69742 39964 ft 449 kts 326°
2026-04-25 16:49 44.59905 25.64873 39970 ft 448 kts 325°
2026-04-25 16:49 44.65078 25.60035 39974 ft 447 kts 325°
2026-04-25 16:50 44.69384 25.55999 39965 ft 446 kts 325°
2026-04-25 16:50 44.75405 25.50342 39968 ft 446 kts 325°
2026-04-25 16:51 44.80576 25.45472 39960 ft 446 kts 325°
2026-04-25 16:51 44.83995 25.42247 39963 ft 445 kts 325°
2026-04-25 16:52 44.90863 25.35754 39977 ft 445 kts 324°
2026-04-25 16:52 44.95987 25.30898 39967 ft 446 kts 324°
2026-04-25 16:53 45.03728 25.23539 39966 ft 446 kts 324°
2026-04-25 16:54 45.08839 25.18669 39963 ft 445 kts 324°
2026-04-25 16:54 45.14004 25.13736 39971 ft 445 kts 324°
2026-04-25 16:55 45.19123 25.08835 39983 ft 445 kts 324°
2026-04-25 16:55 45.24258 25.03908 39979 ft 445 kts 324°
2026-04-25 16:56 45.29348 24.99013 39974 ft 442 kts 324°
2026-04-25 16:56 45.34450 24.94097 39974 ft 442 kts 324°
2026-04-25 16:57 45.39517 24.89203 39974 ft 442 kts 324°
2026-04-25 16:57 45.44609 24.84274 39975 ft 442 kts 324°
2026-04-25 16:58 45.49709 24.79327 39969 ft 442 kts 324°
2026-04-25 16:58 45.54767 24.74409 39975 ft 442 kts 323°
2026-04-25 16:59 45.59863 24.69444 39969 ft 442 kts 323°
2026-04-25 16:59 45.64954 24.64472 39969 ft 442 kts 323°
2026-04-25 17:00 45.70006 24.59527 39960 ft 442 kts 323°
2026-04-25 17:00 45.75088 24.54541 39968 ft 442 kts 323°
2026-04-25 17:01 45.80139 24.49574 39956 ft 442 kts 323°
2026-04-25 17:01 45.85229 24.44558 39952 ft 442 kts 323°
2026-04-25 17:02 45.90309 24.39541 39945 ft 442 kts 323°
2026-04-25 17:02 45.95353 24.34549 39942 ft 441 kts 323°
2026-04-25 17:03 46.00408 24.29534 39942 ft 441 kts 323°
2026-04-25 17:03 46.05463 24.24507 39929 ft 441 kts 323°
2026-04-25 17:04 46.10488 24.19499 39929 ft 441 kts 323°
2026-04-25 17:04 46.15532 24.14462 39934 ft 441 kts 323°
2026-04-25 17:05 46.19738 24.10252 39932 ft 441 kts 323°
2026-04-25 17:05 46.27298 24.02665 39941 ft 441 kts 323°
2026-04-25 17:06 46.32310 23.97620 39928 ft 441 kts 323°
2026-04-25 17:06 46.37351 23.92534 39918 ft 441 kts 323°
2026-04-25 17:07 46.42393 23.87436 39927 ft 440 kts 323°
2026-04-25 17:07 46.47396 23.82366 39930 ft 440 kts 322°
2026-04-25 17:08 46.52412 23.77271 39933 ft 440 kts 322°
2026-04-25 17:08 46.57403 23.72190 39931 ft 440 kts 322°
2026-04-25 17:09 46.62415 23.67077 39914 ft 440 kts 322°
2026-04-25 17:09 46.67399 23.61979 39916 ft 439 kts 322°
2026-04-25 17:10 46.72405 23.56847 39912 ft 439 kts 322°
2026-04-25 17:10 46.77405 23.51709 39913 ft 439 kts 322°
2026-04-25 17:11 46.82391 23.46575 39919 ft 439 kts 322°
2026-04-25 17:11 46.87395 23.41410 39937 ft 439 kts 322°
2026-04-25 17:12 46.92356 23.36277 39930 ft 439 kts 322°
2026-04-25 17:12 46.97359 23.31087 39927 ft 439 kts 322°
2026-04-25 17:13 47.01506 23.26777 39927 ft 439 kts 322°
2026-04-25 17:13 47.07310 23.20731 39925 ft 439 kts 321°
2026-04-25 17:14 47.12294 23.15526 39924 ft 439 kts 321°
2026-04-25 17:14 47.17243 23.10345 39921 ft 439 kts 321°
2026-04-25 17:15 47.22238 23.05104 39923 ft 440 kts 321°
2026-04-25 17:15 47.27221 22.99864 39921 ft 440 kts 321°
2026-04-25 17:16 47.32131 22.94688 39920 ft 439 kts 321°
2026-04-25 17:16 47.37116 22.89420 39915 ft 439 kts 321°
2026-04-25 17:17 47.42052 22.84192 39914 ft 439 kts 321°
2026-04-25 17:17 47.47019 22.78918 39913 ft 440 kts 321°
2026-04-25 17:18 47.51996 22.73621 39910 ft 440 kts 321°
2026-04-25 17:18 47.56945 22.68342 39909 ft 440 kts 321°
2026-04-25 17:19 47.61911 22.63032 39910 ft 440 kts 321°
2026-04-25 17:19 47.66884 22.57701 39909 ft 440 kts 321°
2026-04-25 17:20 47.71822 22.52396 39924 ft 440 kts 321°
2026-04-25 17:20 47.76795 22.47039 39900 ft 441 kts 321°
2026-04-25 17:21 47.81400 22.41072 39900 ft 437 kts 313°
2026-04-25 17:21 47.85644 22.34631 39897 ft 437 kts 311°
2026-04-25 17:22 47.89141 22.29189 39895 ft 437 kts 311°
2026-04-25 17:22 47.94036 22.21540 39889 ft 437 kts 311°
2026-04-25 17:23 47.98255 22.14950 39894 ft 437 kts 311°
2026-04-25 17:23 48.02428 22.08427 39883 ft 436 kts 311°
2026-04-25 17:24 48.06622 22.01856 39885 ft 435 kts 311°
2026-04-25 17:24 48.10783 21.95318 39882 ft 435 kts 311°
2026-04-25 17:25 48.14956 21.88745 39882 ft 435 kts 311°
2026-04-25 17:25 48.19099 21.82203 39885 ft 435 kts 311°
2026-04-25 17:26 48.23265 21.75607 39881 ft 435 kts 311°
2026-04-25 17:26 48.27422 21.69010 39876 ft 435 kts 311°
2026-04-25 17:27 48.31581 21.62393 39873 ft 435 kts 311°
2026-04-25 17:27 48.34331 21.58008 39870 ft 435 kts 311°
2026-04-25 17:28 48.39851 21.49183 39879 ft 434 kts 311°
2026-04-25 17:28 48.43990 21.42549 39871 ft 433 kts 310°
2026-04-25 17:29 48.48117 21.35914 39871 ft 433 kts 310°
2026-04-25 17:29 48.52236 21.29275 39860 ft 434 kts 310°
2026-04-25 17:30 48.56530 21.22919 39851 ft 435 kts 315°
2026-04-25 17:30 48.61081 21.16823 39855 ft 436 kts 315°
2026-04-25 17:31 48.65591 21.10724 39856 ft 436 kts 315°
2026-04-25 17:31 48.70076 21.04524 39879 ft 436 kts 314°
2026-04-25 17:32 48.74548 20.98278 39865 ft 437 kts 314°
2026-04-25 17:32 48.79016 20.92013 39869 ft 438 kts 314°
2026-04-25 17:33 48.83476 20.85751 39875 ft 439 kts 314°
2026-04-25 17:33 48.87984 20.79412 39882 ft 439 kts 314°
2026-04-25 17:34 48.92445 20.73122 39890 ft 440 kts 314°
2026-04-25 17:34 48.96934 20.66776 39893 ft 440 kts 314°
2026-04-25 17:35 49.01405 20.60439 39919 ft 439 kts 314°
2026-04-25 17:35 49.05883 20.54074 39905 ft 440 kts 314°
2026-04-25 17:36 49.10362 20.47692 39909 ft 440 kts 314°
2026-04-25 17:36 49.14832 20.41306 39909 ft 440 kts 314°
2026-04-25 17:37 49.19270 20.34950 39912 ft 440 kts 314°
2026-04-25 17:37 49.23753 20.28515 39914 ft 441 kts 314°
2026-04-25 17:38 49.26721 20.24248 39916 ft 441 kts 314°
2026-04-25 17:38 49.32686 20.15644 39916 ft 440 kts 314°
2026-04-25 17:39 49.37112 20.09246 39921 ft 440 kts 314°
2026-04-25 17:39 49.41577 20.02766 39919 ft 440 kts 314°
2026-04-25 17:40 49.46028 19.96292 39920 ft 440 kts 314°
2026-04-25 17:40 49.50449 19.89847 39924 ft 441 kts 314°
2026-04-25 17:41 49.54910 19.83327 39924 ft 440 kts 314°
2026-04-25 17:41 49.59330 19.76851 39927 ft 440 kts 314°
2026-04-25 17:42 49.63774 19.70322 39941 ft 440 kts 313°
2026-04-25 17:42 49.68209 19.63790 39922 ft 439 kts 313°
2026-04-25 17:43 49.72608 19.57293 39927 ft 439 kts 313°
2026-04-25 17:43 49.77000 19.50788 39930 ft 438 kts 313°
2026-04-25 17:44 49.81414 19.44235 39922 ft 438 kts 313°
2026-04-25 17:44 49.85799 19.37709 39922 ft 438 kts 313°
2026-04-25 17:45 49.88716 19.33356 39920 ft 437 kts 313°
2026-04-25 17:45 49.94565 19.24605 39917 ft 437 kts 313°
2026-04-25 17:46 49.98924 19.18064 39919 ft 436 kts 313°
2026-04-25 17:46 50.03293 19.11490 39909 ft 436 kts 313°
2026-04-25 17:47 50.07658 19.04904 39903 ft 436 kts 313°
2026-04-25 17:47 50.11995 18.98343 39916 ft 436 kts 313°
2026-04-25 17:48 50.18511 18.88455 39907 ft 436 kts 313°
2026-04-25 17:49 50.22868 18.81819 39906 ft 436 kts 313°
2026-04-25 17:49 50.27190 18.75220 39904 ft 436 kts 313°
2026-04-25 17:50 50.31529 18.68577 39916 ft 435 kts 313°
2026-04-25 17:50 50.35155 18.63011 39916 ft 434 kts 313°
2026-04-25 17:51 50.39444 18.56412 39899 ft 434 kts 313°
2026-04-25 17:51 50.43762 18.49749 39913 ft 434 kts 313°
2026-04-25 17:52 50.48052 18.43114 39913 ft 434 kts 313°
2026-04-25 17:52 50.52355 18.36438 39918 ft 434 kts 313°
2026-04-25 17:53 50.56628 18.29793 39909 ft 434 kts 313°
2026-04-25 17:53 50.60918 18.23102 39941 ft 434 kts 312°
2026-04-25 17:54 50.65210 18.16391 39908 ft 433 kts 312°
2026-04-25 17:54 50.69465 18.09718 39905 ft 433 kts 312°
2026-04-25 17:55 50.73743 18.02991 39901 ft 433 kts 312°
2026-04-25 17:55 50.78011 17.96264 39908 ft 432 kts 312°
2026-04-25 17:56 50.82245 17.89570 39906 ft 432 kts 312°
2026-04-25 17:56 50.86499 17.82826 39905 ft 432 kts 312°
2026-04-25 17:57 50.90754 17.76062 39908 ft 432 kts 312°
2026-04-25 17:57 50.94967 17.69347 39897 ft 432 kts 312°
2026-04-25 17:58 50.99201 17.62579 39906 ft 432 kts 312°
2026-04-25 17:58 51.03441 17.55784 39905 ft 432 kts 312°
2026-04-25 17:59 51.07640 17.49035 39901 ft 432 kts 312°
2026-04-25 17:59 51.11874 17.42212 39904 ft 432 kts 312°
2026-04-25 18:00 51.16070 17.35432 39904 ft 432 kts 312°
2026-04-25 18:00 51.20292 17.28588 39905 ft 432 kts 312°
2026-04-25 18:01 51.24512 17.21731 39908 ft 432 kts 312°
2026-04-25 18:01 51.28702 17.14904 39906 ft 432 kts 312°
2026-04-25 18:02 51.32527 17.07534 39904 ft 430 kts 305°
2026-04-25 18:02 51.36013 16.99811 39903 ft 430 kts 304°
2026-04-25 18:03 51.39470 16.91967 39905 ft 430 kts 304°
2026-04-25 18:03 51.42896 16.84162 39908 ft 430 kts 304°
2026-04-25 18:04 51.46353 16.76286 39906 ft 430 kts 304°
2026-04-25 18:04 51.49783 16.68459 39905 ft 430 kts 304°
2026-04-25 18:05 51.53219 16.60597 39911 ft 430 kts 304°
2026-04-25 18:05 51.56634 16.52756 39908 ft 430 kts 304°
2026-04-25 18:06 51.60071 16.44841 39912 ft 430 kts 304°
2026-04-25 18:06 51.63471 16.36988 39911 ft 429 kts 304°
2026-04-25 18:07 51.66887 16.29073 39910 ft 429 kts 304°
2026-04-25 18:07 51.70291 16.21161 39911 ft 429 kts 304°
2026-04-25 18:08 51.73674 16.13275 39912 ft 429 kts 304°
2026-04-25 18:08 51.77064 16.05346 39914 ft 428 kts 304°
2026-04-25 18:09 51.80430 15.97451 39914 ft 428 kts 304°
2026-04-25 18:09 51.83802 15.89517 39916 ft 428 kts 304°
2026-04-25 18:10 51.87159 15.81594 39921 ft 428 kts 304°
2026-04-25 18:10 51.90520 15.73637 39917 ft 427 kts 304°
2026-04-25 18:11 51.93864 15.65695 39922 ft 425 kts 304°
2026-04-25 18:11 51.97177 15.57804 39923 ft 425 kts 304°
2026-04-25 18:12 52.00495 15.49879 39921 ft 422 kts 304°
2026-04-25 18:12 52.03790 15.41982 39911 ft 421 kts 304°
2026-04-25 18:13 52.07054 15.34134 39907 ft 421 kts 304°
2026-04-25 18:13 52.10334 15.26224 39925 ft 421 kts 304°
2026-04-25 18:14 52.15235 15.14360 39930 ft 421 kts 304°
2026-04-25 18:14 52.18479 15.06476 39938 ft 420 kts 304°
2026-04-25 18:15 52.21743 14.98520 39936 ft 421 kts 303°
2026-04-25 18:15 52.24974 14.90620 39936 ft 420 kts 303°
2026-04-25 18:16 52.28215 14.82671 39941 ft 420 kts 303°
2026-04-25 18:17 52.33065 14.70727 39937 ft 420 kts 303°
2026-04-25 18:17 52.36268 14.62811 39936 ft 419 kts 303°
2026-04-25 18:18 52.39057 14.54446 39935 ft 419 kts 294°
2026-04-25 18:18 52.41316 14.45639 39938 ft 419 kts 293°
2026-04-25 18:19 52.43474 14.36763 39941 ft 419 kts 292°
2026-04-25 18:19 52.45592 14.27859 39941 ft 419 kts 292°
2026-04-25 18:20 52.47693 14.18985 39951 ft 419 kts 292°
2026-04-25 18:20 52.49806 14.10046 39952 ft 419 kts 292°
2026-04-25 18:21 52.51915 14.01094 39953 ft 419 kts 292°
2026-04-25 18:21 52.54000 13.92212 39952 ft 419 kts 292°
2026-04-25 18:22 52.56095 13.83250 39951 ft 419 kts 292°
2026-04-25 18:22 52.58167 13.74348 39951 ft 419 kts 292°
2026-04-25 18:23 52.60249 13.65365 39957 ft 419 kts 292°
2026-04-25 18:23 52.62322 13.56381 39956 ft 420 kts 292°
2026-04-25 18:24 52.64383 13.47414 39965 ft 421 kts 292°
2026-04-25 18:24 52.66450 13.38381 39968 ft 421 kts 292°
2026-04-25 18:25 52.68509 13.29346 39974 ft 421 kts 292°
2026-04-25 18:25 52.70431 13.20875 39976 ft 421 kts 292°
2026-04-25 18:26 52.72476 13.11825 39980 ft 421 kts 292°
2026-04-25 18:26 52.74520 13.02744 39978 ft 423 kts 292°
2026-04-25 18:27 52.76565 12.93618 39988 ft 423 kts 292°
2026-04-25 18:27 52.78564 12.84539 39839 ft 422 kts 292°
2026-04-25 18:28 52.80572 12.75399 39747 ft 423 kts 292°
2026-04-25 18:28 52.81588 12.70864 39282 ft 418 kts 292°
2026-04-25 18:28 52.82596 12.66362 38603 ft 418 kts 292°
2026-04-25 18:29 52.84583 12.57367 37022 ft 419 kts 292°
2026-04-25 18:29 52.85582 12.52823 36266 ft 419 kts 293°
2026-04-25 18:30 52.88559 12.39230 34134 ft 419 kts 294°
2026-04-25 18:30 52.89548 12.34695 33363 ft 418 kts 294°
2026-04-25 18:30 52.90521 12.30217 32571 ft 417 kts 293°
2026-04-25 18:30 52.91508 12.25670 31791 ft 418 kts 293°
2026-04-25 18:31 52.92493 12.21118 30999 ft 420 kts 293°
2026-04-25 18:31 52.93481 12.16542 30266 ft 424 kts 292°
2026-04-25 18:31 52.94477 12.11916 29442 ft 426 kts 292°
2026-04-25 18:31 52.95467 12.07302 28612 ft 423 kts 292°
2026-04-25 18:32 52.96434 12.02774 27814 ft 419 kts 292°
2026-04-25 18:32 52.97397 11.98249 27015 ft 412 kts 292°
2026-04-25 18:32 52.98349 11.93777 26263 ft 408 kts 292°
2026-04-25 18:32 52.99289 11.89349 25515 ft 403 kts 292°
2026-04-25 18:33 53.00207 11.85023 24803 ft 399 kts 292°
2026-04-25 18:33 53.01123 11.80696 24288 ft 394 kts 292°
2026-04-25 18:33 53.02030 11.76410 24062 ft 392 kts 292°
2026-04-25 18:33 53.02938 11.72110 24011 ft 392 kts 292°
2026-04-25 18:34 53.03538 11.69268 24022 ft 393 kts 292°
2026-04-25 18:34 53.04441 11.64976 24029 ft 393 kts 292°
2026-04-25 18:34 53.05342 11.60687 24028 ft 393 kts 292°
2026-04-25 18:34 53.06240 11.56397 23683 ft 386 kts 292°
2026-04-25 18:35 53.07093 11.52329 22544 ft 370 kts 294°
2026-04-25 18:35 53.08054 11.48383 20890 ft 368 kts 296°
2026-04-25 18:35 53.09074 11.44495 19414 ft 364 kts 296°
2026-04-25 18:35 53.10115 11.40664 18059 ft 358 kts 297°
2026-04-25 18:36 53.11146 11.36930 16571 ft 351 kts 297°
2026-04-25 18:36 53.12160 11.33268 15162 ft 345 kts 297°
2026-04-25 18:36 53.13154 11.29675 13826 ft 338 kts 296°
2026-04-25 18:36 53.14126 11.26145 12310 ft 333 kts 296°
2026-04-25 18:37 53.15069 11.22705 11109 ft 326 kts 296°
2026-04-25 18:37 53.15991 11.19324 10363 ft 316 kts 296°
2026-04-25 18:37 53.16878 11.16063 9522 ft 301 kts 296°
2026-04-25 18:37 53.17718 11.12965 8849 ft 281 kts 296°
2026-04-25 18:38 53.18477 11.10152 8560 ft 253 kts 296°
2026-04-25 18:38 53.19157 11.07626 8295 ft 231 kts 296°
2026-04-25 18:38 53.19820 11.05179 8047 ft 233 kts 297°
2026-04-25 18:38 53.20546 11.02750 7787 ft 233 kts 302°
2026-04-25 18:39 53.21402 11.00466 7312 ft 231 kts 304°
2026-04-25 18:39 53.22284 10.98216 7081 ft 232 kts 304°
2026-04-25 18:39 53.23163 10.95984 7048 ft 232 kts 304°
2026-04-25 18:39 53.24051 10.93726 7067 ft 234 kts 304°
2026-04-25 18:40 53.24930 10.91449 7046 ft 231 kts 304°
2026-04-25 18:40 53.25795 10.89188 6915 ft 230 kts 304°
2026-04-25 18:40 53.26660 10.86925 6418 ft 232 kts 304°
2026-04-25 18:40 53.27546 10.84597 5638 ft 242 kts 304°
2026-04-25 18:41 53.28437 10.82228 5144 ft 242 kts 304°
2026-04-25 18:41 53.29224 10.80101 4975 ft 228 kts 304°
2026-04-25 18:41 53.30048 10.77859 4970 ft 228 kts 304°
2026-04-25 18:41 53.30886 10.75577 4973 ft 228 kts 304°
2026-04-25 18:42 53.31719 10.73314 4971 ft 228 kts 304°
2026-04-25 18:42 53.32268 10.71821 4982 ft 228 kts 304°
2026-04-25 18:42 53.33371 10.68817 4982 ft 228 kts 304°
2026-04-25 18:42 53.33910 10.66304 4983 ft 237 kts 281°
2026-04-25 18:43 53.33653 10.63534 4979 ft 248 kts 258°
2026-04-25 18:43 53.32998 10.60830 4978 ft 252 kts 255°
2026-04-25 18:43 53.32285 10.58151 4980 ft 252 kts 254°
2026-04-25 18:43 53.31566 10.55471 4979 ft 252 kts 254°
2026-04-25 18:44 53.30849 10.52792 4983 ft 252 kts 254°
2026-04-25 18:44 53.30126 10.50118 4993 ft 252 kts 254°
2026-04-25 18:44 53.29411 10.47477 4991 ft 248 kts 254°
2026-04-25 18:44 53.28720 10.44991 4981 ft 225 kts 254°
2026-04-25 18:45 53.28060 10.42651 4986 ft 221 kts 254°
2026-04-25 18:45 53.27412 10.40316 5002 ft 221 kts 254°
2026-04-25 18:45 53.26767 10.37991 4997 ft 220 kts 254°
2026-04-25 18:45 53.26121 10.35675 4995 ft 220 kts 254°
2026-04-25 18:46 53.25479 10.33396 4991 ft 220 kts 254°
2026-04-25 18:46 53.24825 10.31076 4775 ft 222 kts 254°
2026-04-25 18:46 53.24229 10.28726 4416 ft 214 kts 263°
2026-04-25 18:46 53.24288 10.26366 4073 ft 197 kts 296°
2026-04-25 18:47 53.25139 10.24710 4003 ft 194 kts 329°
2026-04-25 18:47 53.26461 10.24123 4008 ft 201 kts 351°
2026-04-25 18:47 53.27874 10.24257 4005 ft 206 kts
2026-04-25 18:47 53.29282 10.24661 3995 ft 199 kts
2026-04-25 18:48 53.30553 10.25090 4007 ft 174 kts
2026-04-25 18:48 53.31658 10.25513 4014 ft 153 kts
2026-04-25 18:48 53.32632 10.25922 3981 ft 134 kts
2026-04-25 18:48 53.33464 10.26159 3995 ft 114 kts 353°
2026-04-25 18:49 53.34227 10.25957 4008 ft 110 kts 335°
2026-04-25 18:49 53.34870 10.25289 4010 ft 109 kts 318°
2026-04-25 18:49 53.35316 10.24246 4006 ft 112 kts 301°
2026-04-25 18:49 53.35755 10.23199 4005 ft 111 kts 323°
2026-04-25 18:50 53.36423 10.22588 4002 ft 111 kts 333°
2026-04-25 18:50 53.37142 10.22086 4002 ft 111 kts 334°
2026-04-25 18:50 53.37862 10.21606 4003 ft 111 kts 334°
2026-04-25 18:50 53.38581 10.21133 4002 ft 111 kts 334°
2026-04-25 18:51 53.39293 10.20666 4005 ft 111 kts 334°
2026-04-25 18:51 53.39772 10.20351 4006 ft 111 kts 334°
2026-04-25 18:51 53.40736 10.19717 4005 ft 111 kts 334°
2026-04-25 18:51 53.41456 10.19242 3998 ft 111 kts 334°
2026-04-25 18:52 53.42181 10.18764 3997 ft 111 kts 334°
2026-04-25 18:52 53.42897 10.18277 3998 ft 111 kts 332°
2026-04-25 18:52 53.43590 10.17739 4000 ft 111 kts 331°
2026-04-25 18:52 53.44289 10.17179 3996 ft 111 kts 331°
2026-04-25 18:53 53.44972 10.16567 4003 ft 113 kts 328°
2026-04-25 18:53 53.45666 10.15850 4009 ft 121 kts 321°
2026-04-25 18:53 53.46202 10.14815 3970 ft 115 kts 305°
2026-04-25 18:53 53.46633 10.13743 3988 ft 110 kts 320°
2026-04-25 18:54 53.47994 10.12567 3996 ft 111 kts 334°
2026-04-25 18:54 53.48712 10.12085 3997 ft 110 kts 334°
2026-04-25 18:54 53.49416 10.11615 3995 ft 110 kts 334°
2026-04-25 18:55 53.50119 10.11093 3987 ft 111 kts 334°
2026-04-25 18:55 53.50831 10.10582 3903 ft 111 kts 332°
2026-04-25 18:55 53.51527 10.10021 3731 ft 110 kts 331°
2026-04-25 18:55 53.52211 10.09463 3583 ft 109 kts 331°
2026-04-25 18:56 53.52894 10.08907 3434 ft 109 kts 331°
2026-04-25 18:56 53.53578 10.08348 3255 ft 109 kts 330°
2026-04-25 18:56 53.54250 10.07800 3077 ft 108 kts 331°
2026-04-25 18:56 53.54929 10.07240 2921 ft 109 kts 330°
2026-04-25 18:57 53.55605 10.06664 2733 ft 109 kts 330°
2026-04-25 18:57 53.56272 10.06041 2556 ft 110 kts 327°
2026-04-25 18:57 53.56934 10.05400 2357 ft 110 kts 327°
2026-04-25 18:57 53.57377 10.04972 2210 ft 112 kts 327°
2026-04-25 18:58 53.58260 10.03918 1520 ft 122 kts 320°
2026-04-25 18:58 53.59732 10.02461 811 ft 118 kts 330°
2026-04-25 18:58 53.60444 10.01848 575 ft 110 kts 323°
2026-04-25 18:59 53.61837 10.00637 278 ft 115 kts 329°
2026-04-25 18:59 53.63259 9.99420 50 ft 107 kts 329°
2026-04-25 19:00 53.64153 9.98634 51 ft 41 kts 333°
2026-04-25 19:00 53.64373 9.98446 54 ft 31 kts 335°
2026-04-25 19:01 53.64617 9.98377 58 ft 12 kts
2026-04-25 19:01 53.64691 9.98435 53 ft 7 kts 61°
2026-04-25 19:01 53.64682 9.98495 53 ft 6 kts 126°
2026-04-25 19:01 53.64636 9.98555 50 ft 10 kts 146°
2026-04-25 19:02 53.64459 9.98709 51 ft 19 kts 153°
2026-04-25 19:02 53.64352 9.98800 52 ft 8 kts 153°
2026-04-25 19:02 53.64293 9.98852 49 ft 12 kts 152°
2026-04-25 19:03 53.64172 9.98957 50 ft 17 kts 153°
2026-04-25 19:03 53.64008 9.99099 49 ft 11 kts 153°
2026-04-25 19:03 53.63922 9.99174 50 ft 16 kts 153°
2026-04-25 19:04 53.63746 9.99385 50 ft 13 kts 129°
2026-04-25 19:04 53.63694 9.99510 50 ft 10 kts 126°
2026-04-25 19:05 53.63648 9.99615 51 ft 5 kts 126°
2026-04-25 19:05 53.63574 9.99789 51 ft 12 kts 126°
2026-04-25 19:05 53.63532 9.99887 48 ft 9 kts 126°
2026-04-25 19:06 53.63513 9.99933 50 ft 0 kts 126°
2026-04-25 19:06 53.63497 9.99969 48 ft 8 kts 126°
2026-04-25 19:06 53.63449 10.00080 52 ft 15 kts 126°
2026-04-25 19:07 53.63416 10.00149 50 ft 4 kts 135°
2026-04-25 19:07 53.63396 10.00173 53 ft 3 kts 149°
2026-04-25 19:08 53.63324 10.00200 50 ft 8 kts 172°
2026-04-25 19:08 53.63273 10.00208 53 ft 7 kts 175°
2026-04-25 19:09 53.63164 10.00222 55 ft 4 kts 175°
2026-04-25 19:09 53.63155 10.00223 56 ft 4 kts 176°
2026-04-25 19:09 53.63071 10.00212 50 ft 6 kts 198°
2026-04-25 19:10 53.63034 10.00180 54 ft 6 kts 211°
2026-04-25 19:10 53.63004 10.00150 50 ft 4 kts 209°
2026-04-25 19:10 53.62992 10.00147 50 ft 2 kts 183°
2026-04-25 19:10 53.62969 10.00165 51 ft 1 kts 137°
2026-04-25 19:11 53.62969 10.00167 51 ft 0 kts 131°
2026-04-25 19:11 53.62968 10.00171 52 ft 2 kts 121°
2026-04-25 19:11 53.62956 10.00204 51 ft 0 kts 121°
2026-04-25 19:11 53.62948 10.00228 50 ft 0 kts 120°
2026-04-25 19:12 53.62946 10.00232 50 ft 2 kts 120°
2026-04-25 19:12 53.62944 10.00237 50 ft 0 kts 120°
2026-04-25 19:12 53.62942 10.00244 50 ft 0 kts 120°